owner,sensor,date,latitude,longitude,vertical_datum,mass_concentration_of_oxygen_in_sea_water,qcFlag 
SCCF RECON,ioos:station:SCCF:12:1,2010-10-01T00:00:00Z,26.4966,-82.1479,2.11,7.08,1111122 
SCCF RECON,ioos:station:SCCF:12:1,2010-10-01T01:00:00Z,26.4966,-82.1479,2.149,6.68,1111122 
SCCF RECON,ioos:station:SCCF:12:1,2010-10-01T02:00:00Z,26.4966,-82.1479,2.153,6.41,1111122 
SCCF RECON,ioos:station:SCCF:12:1,2010-10-01T03:00:00Z,26.4966,-82.1479,2.13,6.49,1111122 
SCCF RECON,ioos:station:SCCF:12:1,2010-10-01T04:00:00Z,26.4966,-82.1479,2.119,6.25,1111122 
SCCF RECON,ioos:station:SCCF:12:1,2010-10-01T05:00:00Z,26.4966,-82.1479,2.126,6.08,1111122 
SCCF RECON,ioos:station:SCCF:12:1,2010-10-01T06:00:00Z,26.4966,-82.1479,2.134,6.02,1111122 
SCCF RECON,ioos:station:SCCF:12:1,2010-10-01T07:00:00Z,26.4966,-82.1479,2.151,5.87,1111122 
SCCF RECON,ioos:station:SCCF:12:1,2010-10-01T08:00:00Z,26.4966,-82.1479,2.205,5.72,1111122 
SCCF RECON,ioos:station:SCCF:12:1,2010-10-01T09:00:00Z,26.4966,-82.1479,2.261,5.49,1111122 
SCCF RECON,ioos:station:SCCF:12:1,2010-10-01T10:00:00Z,26.4966,-82.1479,2.3,5.33,1111122 
SCCF RECON,ioos:station:SCCF:12:1,2010-10-01T11:00:00Z,26.4966,-82.1479,2.31,5.01,1111122 
SCCF RECON,ioos:station:SCCF:12:1,2010-10-01T12:00:00Z,26.4966,-82.1479,2.27,5.22,1111122 
SCCF RECON,ioos:station:SCCF:12:1,2010-10-01T13:00:00Z,26.4966,-82.1479,2.19,5.27,1111122 
SCCF RECON,ioos:station:SCCF:12:1,2010-10-01T14:00:00Z,26.4966,-82.1479,2.083,5.2,1111122 
SCCF RECON,ioos:station:SCCF:12:1,2010-10-01T15:00:00Z,26.4966,-82.1479,1.98,5.28,1111122 
SCCF RECON,ioos:station:SCCF:12:1,2010-10-01T16:00:00Z,26.4966,-82.1479,1.877,5.26,1111122 
SCCF RECON,ioos:station:SCCF:12:1,2010-10-01T17:00:00Z,26.4966,-82.1479,1.78,5.7,1111122 
SCCF RECON,ioos:station:SCCF:12:1,2010-10-01T18:00:00Z,26.4966,-82.1479,1.687,5.82,1111122 
SCCF RECON,ioos:station:SCCF:12:1,2010-10-01T19:00:00Z,26.4966,-82.1479,1.64,5.84,1111122 
SCCF RECON,ioos:station:SCCF:12:1,2010-10-01T20:00:00Z,26.4966,-82.1479,1.69,6.21,1111122 
SCCF RECON,ioos:station:SCCF:12:1,2010-10-01T21:00:00Z,26.4966,-82.1479,1.798,6.48,1111122 
SCCF RECON,ioos:station:SCCF:12:1,2010-10-01T22:00:00Z,26.4966,-82.1479,1.909,6.21,1111122 
SCCF RECON,ioos:station:SCCF:12:1,2010-10-01T23:00:00Z,26.4966,-82.1479,2.006,6.34,1111122 
SCCF RECON,ioos:station:SCCF:12:1,2010-10-02T00:00:00Z,26.4966,-82.1479,2.08,6.16,1111122 
SCCF RECON,ioos:station:SCCF:12:1,2010-10-02T01:00:00Z,26.4966,-82.1479,2.134,6.51,1111122 
SCCF RECON,ioos:station:SCCF:12:1,2010-10-02T02:00:00Z,26.4966,-82.1479,2.17,6.19,1111122 
SCCF RECON,ioos:station:SCCF:12:1,2010-10-02T03:00:00Z,26.4966,-82.1479,2.172,5.98,1111122 
SCCF RECON,ioos:station:SCCF:12:1,2010-10-02T04:00:00Z,26.4966,-82.1479,2.152,5.87,1111122 
SCCF RECON,ioos:station:SCCF:12:1,2010-10-02T05:00:00Z,26.4966,-82.1479,2.106,5.97,1111122 
SCCF RECON,ioos:station:SCCF:12:1,2010-10-02T06:00:00Z,26.4966,-82.1479,2.084,5.98,1111122 
SCCF RECON,ioos:station:SCCF:12:1,2010-10-02T07:00:00Z,26.4966,-82.1479,2.088,5.64,1111122 
SCCF RECON,ioos:station:SCCF:12:1,2010-10-02T08:00:00Z,26.4966,-82.1479,2.112,6.03,1111122 
SCCF RECON,ioos:station:SCCF:12:1,2010-10-02T09:00:00Z,26.4966,-82.1479,2.161,5.9,1111122 
SCCF RECON,ioos:station:SCCF:12:1,2010-10-02T10:00:00Z,26.4966,-82.1479,2.239,5.67,1111122 
SCCF RECON,ioos:station:SCCF:12:1,2010-10-02T11:00:00Z,26.4966,-82.1479,2.3,5.61,1111122 
SCCF RECON,ioos:station:SCCF:12:1,2010-10-02T12:00:00Z,26.4966,-82.1479,2.338,5.36,1111122 
SCCF RECON,ioos:station:SCCF:12:1,2010-10-02T13:00:00Z,26.4966,-82.1479,2.349,5.5,1111122 
SCCF RECON,ioos:station:SCCF:12:1,2010-10-02T14:00:00Z,26.4966,-82.1479,2.293,5.69,1111122 
SCCF RECON,ioos:station:SCCF:12:1,2010-10-02T15:00:00Z,26.4966,-82.1479,2.2,5.97,1111122 
SCCF RECON,ioos:station:SCCF:12:1,2010-10-02T16:00:00Z,26.4966,-82.1479,2.076,6.1,1111122 
SCCF RECON,ioos:station:SCCF:12:1,2010-10-02T17:00:00Z,26.4966,-82.1479,1.948,6.39,1111122 
SCCF RECON,ioos:station:SCCF:12:1,2010-10-02T18:00:00Z,26.4966,-82.1479,1.832,6.7,1111122 
SCCF RECON,ioos:station:SCCF:12:1,2010-10-02T19:00:00Z,26.4966,-82.1479,1.74,7.73,1111122 
SCCF RECON,ioos:station:SCCF:12:1,2010-10-02T20:00:00Z,26.4966,-82.1479,1.691,6.56,1111122 
SCCF RECON,ioos:station:SCCF:12:1,2010-10-02T21:00:00Z,26.4966,-82.1479,1.732,7.12,1111122 
SCCF RECON,ioos:station:SCCF:12:1,2010-10-02T22:00:00Z,26.4966,-82.1479,1.842,6.56,1111122 
SCCF RECON,ioos:station:SCCF:12:1,2010-10-02T23:00:00Z,26.4966,-82.1479,1.96,6.58,1111122 
SCCF RECON,ioos:station:SCCF:12:1,2010-10-03T00:00:00Z,26.4966,-82.1479,2.058,6.59,1111122 
SCCF RECON,ioos:station:SCCF:12:1,2010-10-03T01:00:00Z,26.4966,-82.1479,2.136,6.24,1111122 
SCCF RECON,ioos:station:SCCF:12:1,2010-10-03T02:00:00Z,26.4966,-82.1479,2.204,6.27,1111122 
SCCF RECON,ioos:station:SCCF:12:1,2010-10-03T03:00:00Z,26.4966,-82.1479,2.237,6.66,1111122 
SCCF RECON,ioos:station:SCCF:12:1,2010-10-03T04:00:00Z,26.4966,-82.1479,2.22,6.3,1111122 
SCCF RECON,ioos:station:SCCF:12:1,2010-10-03T05:00:00Z,26.4966,-82.1479,2.159,5.93,1111122 
SCCF RECON,ioos:station:SCCF:12:1,2010-10-03T06:00:00Z,26.4966,-82.1479,2.078,6.07,1111122 
SCCF RECON,ioos:station:SCCF:12:1,2010-10-03T07:00:00Z,26.4966,-82.1479,2.01,6.19,1111122 
SCCF RECON,ioos:station:SCCF:12:1,2010-10-03T08:00:00Z,26.4966,-82.1479,1.983,5.89,1111122 
SCCF RECON,ioos:station:SCCF:12:1,2010-10-03T09:00:00Z,26.4966,-82.1479,2.018,6.29,1111122 
SCCF RECON,ioos:station:SCCF:12:1,2010-10-03T10:00:00Z,26.4966,-82.1479,2.1,6.2,1111122 
SCCF RECON,ioos:station:SCCF:12:1,2010-10-03T11:00:00Z,26.4966,-82.1479,2.202,5.76,1111122 
SCCF RECON,ioos:station:SCCF:12:1,2010-10-03T12:00:00Z,26.4966,-82.1479,2.29,5.69,1111122 
SCCF RECON,ioos:station:SCCF:12:1,2010-10-03T13:00:00Z,26.4966,-82.1479,2.351,5.45,1111122 
SCCF RECON,ioos:station:SCCF:12:1,2010-10-03T14:00:00Z,26.4966,-82.1479,2.382,5.76,1111122 
SCCF RECON,ioos:station:SCCF:12:1,2010-10-03T15:00:00Z,26.4966,-82.1479,2.35,6.04,1111122 
SCCF RECON,ioos:station:SCCF:12:1,2010-10-03T16:00:00Z,26.4966,-82.1479,2.252,6.32,1111122 
SCCF RECON,ioos:station:SCCF:12:1,2010-10-03T17:00:00Z,26.4966,-82.1479,2.122,6.61,1111122 
SCCF RECON,ioos:station:SCCF:12:1,2010-10-03T18:00:00Z,26.4966,-82.1479,1.972,6.7,1111122 
SCCF RECON,ioos:station:SCCF:12:1,2010-10-03T19:00:00Z,26.4966,-82.1479,1.848,6.93,1111122 
SCCF RECON,ioos:station:SCCF:12:1,2010-10-03T20:00:00Z,26.4966,-82.1479,1.754,7.06,1111122 
SCCF RECON,ioos:station:SCCF:12:1,2010-10-03T21:00:00Z,26.4966,-82.1479,1.71,7.07,1111122 
SCCF RECON,ioos:station:SCCF:12:1,2010-10-03T22:00:00Z,26.4966,-82.1479,1.723,6.9,1111122 
SCCF RECON,ioos:station:SCCF:12:1,2010-10-03T23:00:00Z,26.4966,-82.1479,1.831,7.03,1111122 
SCCF RECON,ioos:station:SCCF:12:1,2010-10-04T00:00:00Z,26.4966,-82.1479,1.97,6.8,1111122 
SCCF RECON,ioos:station:SCCF:12:1,2010-10-04T01:00:00Z,26.4966,-82.1479,2.092,6.68,1111122 
SCCF RECON,ioos:station:SCCF:12:1,2010-10-04T02:00:00Z,26.4966,-82.1479,2.187,6.56,1111122 
SCCF RECON,ioos:station:SCCF:12:1,2010-10-04T03:00:00Z,26.4966,-82.1479,2.261,6.8,1111122 
SCCF RECON,ioos:station:SCCF:12:1,2010-10-04T04:00:00Z,26.4966,-82.1479,2.276,6.73,1111122 
SCCF RECON,ioos:station:SCCF:12:1,2010-10-04T05:00:00Z,26.4966,-82.1479,2.194,6.41,1111122 
SCCF RECON,ioos:station:SCCF:12:1,2010-10-04T06:00:00Z,26.4966,-82.1479,2.084,6.21,1111122 
SCCF RECON,ioos:station:SCCF:12:1,2010-10-04T07:00:00Z,26.4966,-82.1479,1.968,5.88,1111122 
SCCF RECON,ioos:station:SCCF:12:1,2010-10-04T08:00:00Z,26.4966,-82.1479,1.883,5.91,1111122 
SCCF RECON,ioos:station:SCCF:12:1,2010-10-04T09:00:00Z,26.4966,-82.1479,1.84,5.96,1111122 
SCCF RECON,ioos:station:SCCF:12:1,2010-10-04T10:00:00Z,26.4966,-82.1479,1.86,6.03,1111122 
SCCF RECON,ioos:station:SCCF:12:1,2010-10-04T11:00:00Z,26.4966,-82.1479,1.96,5.97,1111122 
SCCF RECON,ioos:station:SCCF:12:1,2010-10-04T12:00:00Z,26.4966,-82.1479,2.11,5.63,1111122 
SCCF RECON,ioos:station:SCCF:12:1,2010-10-04T13:00:00Z,26.4966,-82.1479,2.24,5.67,1111122 
SCCF RECON,ioos:station:SCCF:12:1,2010-10-04T14:00:00Z,26.4966,-82.1479,2.337,5.77,1111122 
SCCF RECON,ioos:station:SCCF:12:1,2010-10-04T15:00:00Z,26.4966,-82.1479,2.393,5.95,1111122 
SCCF RECON,ioos:station:SCCF:12:1,2010-10-04T16:00:00Z,26.4966,-82.1479,2.377,6.2,1111122 
SCCF RECON,ioos:station:SCCF:12:1,2010-10-04T17:00:00Z,26.4966,-82.1479,2.278,6.54,1111122 
SCCF RECON,ioos:station:SCCF:12:1,2010-10-04T18:00:00Z,26.4966,-82.1479,2.143,6.63,1111122 
SCCF RECON,ioos:station:SCCF:12:1,2010-10-04T19:00:00Z,26.4966,-82.1479,1.99,6.67,1111122 
SCCF RECON,ioos:station:SCCF:12:1,2010-10-04T20:00:00Z,26.4966,-82.1479,1.867,6.86,1111122 
SCCF RECON,ioos:station:SCCF:12:1,2010-10-04T21:00:00Z,26.4966,-82.1479,1.764,6.79,1111122 
SCCF RECON,ioos:station:SCCF:12:1,2010-10-04T22:00:00Z,26.4966,-82.1479,1.708,6.89,1111122 
SCCF RECON,ioos:station:SCCF:12:1,2010-10-04T23:00:00Z,26.4966,-82.1479,1.739,6.93,1111122 
SCCF RECON,ioos:station:SCCF:12:1,2010-10-05T00:00:00Z,26.4966,-82.1479,1.881,6.73,1111122 
SCCF RECON,ioos:station:SCCF:12:1,2010-10-05T01:00:00Z,26.4966,-82.1479,2.03,6.34,1111122 
SCCF RECON,ioos:station:SCCF:12:1,2010-10-05T02:00:00Z,26.4966,-82.1479,2.14,6.53,1111122 
SCCF RECON,ioos:station:SCCF:12:1,2010-10-05T03:00:00Z,26.4966,-82.1479,2.244,6.43,1111122 
SCCF RECON,ioos:station:SCCF:12:1,2010-10-05T04:00:00Z,26.4966,-82.1479,2.293,6.38,1111122 
SCCF RECON,ioos:station:SCCF:12:1,2010-10-05T05:00:00Z,26.4966,-82.1479,2.261,6.33,1111122 
SCCF RECON,ioos:station:SCCF:12:1,2010-10-05T06:00:00Z,26.4966,-82.1479,2.167,6.17,1111122 
SCCF RECON,ioos:station:SCCF:12:1,2010-10-05T07:00:00Z,26.4966,-82.1479,2.03,6.12,1111122 
SCCF RECON,ioos:station:SCCF:12:1,2010-10-05T08:00:00Z,26.4966,-82.1479,1.909,5.89,1111122 
SCCF RECON,ioos:station:SCCF:12:1,2010-10-05T09:00:00Z,26.4966,-82.1479,1.817,5.85,1111122 
SCCF RECON,ioos:station:SCCF:12:1,2010-10-05T10:00:00Z,26.4966,-82.1479,1.771,5.98,1111122 
SCCF RECON,ioos:station:SCCF:12:1,2010-10-05T11:00:00Z,26.4966,-82.1479,1.816,6.16,1111122 
SCCF RECON,ioos:station:SCCF:12:1,2010-10-05T12:00:00Z,26.4966,-82.1479,1.957,6.08,1111122 
SCCF RECON,ioos:station:SCCF:12:1,2010-10-05T13:00:00Z,26.4966,-82.1479,2.124,5.95,1111122 
SCCF RECON,ioos:station:SCCF:12:1,2010-10-05T14:00:00Z,26.4966,-82.1479,2.264,5.88,1111122 
SCCF RECON,ioos:station:SCCF:12:1,2010-10-05T15:00:00Z,26.4966,-82.1479,2.367,6.04,1111122 
SCCF RECON,ioos:station:SCCF:12:1,2010-10-05T16:00:00Z,26.4966,-82.1479,2.409,6.05,1111122 
SCCF RECON,ioos:station:SCCF:12:1,2010-10-05T17:00:00Z,26.4966,-82.1479,2.35,6.91,1111122 
SCCF RECON,ioos:station:SCCF:12:1,2010-10-05T18:00:00Z,26.4966,-82.1479,2.223,6.95,1111122 
SCCF RECON,ioos:station:SCCF:12:1,2010-10-05T19:00:00Z,26.4966,-82.1479,2.073,6.94,1111122 
SCCF RECON,ioos:station:SCCF:12:1,2010-10-05T20:00:00Z,26.4966,-82.1479,1.95,7.18,1111122 
SCCF RECON,ioos:station:SCCF:12:1,2010-10-05T21:00:00Z,26.4966,-82.1479,1.857,7.25,1111122 
SCCF RECON,ioos:station:SCCF:12:1,2010-10-05T22:00:00Z,26.4966,-82.1479,1.792,7.13,1111122 
SCCF RECON,ioos:station:SCCF:12:1,2010-10-05T23:00:00Z,26.4966,-82.1479,1.784,7.3,1111122 
SCCF RECON,ioos:station:SCCF:12:1,2010-10-06T00:00:00Z,26.4966,-82.1479,1.869,7.16,1111122 
SCCF RECON,ioos:station:SCCF:12:1,2010-10-06T01:00:00Z,26.4966,-82.1479,2.036,6.87,1111122 
SCCF RECON,ioos:station:SCCF:12:1,2010-10-06T02:00:00Z,26.4966,-82.1479,2.194,6.71,1111122 
SCCF RECON,ioos:station:SCCF:12:1,2010-10-06T03:00:00Z,26.4966,-82.1479,2.3,7.06,1111122 
SCCF RECON,ioos:station:SCCF:12:1,2010-10-06T04:00:00Z,26.4966,-82.1479,2.34,6.69,1111122 
SCCF RECON,ioos:station:SCCF:12:1,2010-10-06T05:00:00Z,26.4966,-82.1479,2.331,6.51,1111122 
SCCF RECON,ioos:station:SCCF:12:1,2010-10-06T06:00:00Z,26.4966,-82.1479,2.239,6.39,1111122 
SCCF RECON,ioos:station:SCCF:12:1,2010-10-06T07:00:00Z,26.4966,-82.1479,2.087,6.28,1111122 
SCCF RECON,ioos:station:SCCF:12:1,2010-10-06T08:00:00Z,26.4966,-82.1479,1.95,6.29,1111122 
SCCF RECON,ioos:station:SCCF:12:1,2010-10-06T09:00:00Z,26.4966,-82.1479,1.825,6.28,1111122 
SCCF RECON,ioos:station:SCCF:12:1,2010-10-06T10:00:00Z,26.4966,-82.1479,1.724,6.33,1111122 
SCCF RECON,ioos:station:SCCF:12:1,2010-10-06T11:00:00Z,26.4966,-82.1479,1.666,6.3,1111122 
SCCF RECON,ioos:station:SCCF:12:1,2010-10-06T12:00:00Z,26.4966,-82.1479,1.686,6.43,1111122 
SCCF RECON,ioos:station:SCCF:12:1,2010-10-06T13:00:00Z,26.4966,-82.1479,1.817,6.25,1111122 
SCCF RECON,ioos:station:SCCF:12:1,2010-10-06T14:00:00Z,26.4966,-82.1479,2.002,6.17,1111122 
SCCF RECON,ioos:station:SCCF:12:1,2010-10-06T15:00:00Z,26.4966,-82.1479,2.17,6.11,1111122 
SCCF RECON,ioos:station:SCCF:12:1,2010-10-06T16:00:00Z,26.4966,-82.1479,2.292,6.33,1111122 
SCCF RECON,ioos:station:SCCF:12:1,2010-10-06T17:00:00Z,26.4966,-82.1479,2.34,6.7,1111122 
SCCF RECON,ioos:station:SCCF:12:1,2010-10-06T18:00:00Z,26.4966,-82.1479,2.3,6.98,1111122 
SCCF RECON,ioos:station:SCCF:12:1,2010-10-06T19:00:00Z,26.4966,-82.1479,2.187,7.08,1111122 
SCCF RECON,ioos:station:SCCF:12:1,2010-10-06T20:00:00Z,26.4966,-82.1479,2.05,7.01,1111122 
SCCF RECON,ioos:station:SCCF:12:1,2010-10-06T21:00:00Z,26.4966,-82.1479,1.926,6.94,1111122 
SCCF RECON,ioos:station:SCCF:12:1,2010-10-06T22:00:00Z,26.4966,-82.1479,1.848,6.94,1111122 
SCCF RECON,ioos:station:SCCF:12:1,2010-10-06T23:00:00Z,26.4966,-82.1479,1.818,7.15,1111122 
SCCF RECON,ioos:station:SCCF:12:1,2010-10-07T00:00:00Z,26.4966,-82.1479,1.862,6.98,1111122 
SCCF RECON,ioos:station:SCCF:12:1,2010-10-07T01:00:00Z,26.4966,-82.1479,2.001,7.26,1111122 
SCCF RECON,ioos:station:SCCF:12:1,2010-10-07T02:00:00Z,26.4966,-82.1479,2.177,6.76,1111122 
SCCF RECON,ioos:station:SCCF:12:1,2010-10-07T03:00:00Z,26.4966,-82.1479,2.314,6.54,1111122 
SCCF RECON,ioos:station:SCCF:12:1,2010-10-07T04:00:00Z,26.4966,-82.1479,2.395,6.53,1111122 
SCCF RECON,ioos:station:SCCF:12:1,2010-10-07T05:00:00Z,26.4966,-82.1479,2.422,6.7,1111122 
SCCF RECON,ioos:station:SCCF:12:1,2010-10-07T06:00:00Z,26.4966,-82.1479,2.358,6.8,1111122 
SCCF RECON,ioos:station:SCCF:12:1,2010-10-07T07:00:00Z,26.4966,-82.1479,2.236,6.49,1111122 
SCCF RECON,ioos:station:SCCF:12:1,2010-10-07T08:00:00Z,26.4966,-82.1479,2.081,6.34,1111122 
SCCF RECON,ioos:station:SCCF:12:1,2010-10-07T09:00:00Z,26.4966,-82.1479,1.944,6.35,1111122 
SCCF RECON,ioos:station:SCCF:12:1,2010-10-07T10:00:00Z,26.4966,-82.1479,1.815,6.33,1111122 
SCCF RECON,ioos:station:SCCF:12:1,2010-10-07T11:00:00Z,26.4966,-82.1479,1.709,6.37,1111122 
SCCF RECON,ioos:station:SCCF:12:1,2010-10-07T12:00:00Z,26.4966,-82.1479,1.646,6.35,1111122 
SCCF RECON,ioos:station:SCCF:12:1,2010-10-07T13:00:00Z,26.4966,-82.1479,1.714,6.35,1111122 
SCCF RECON,ioos:station:SCCF:12:1,2010-10-07T14:00:00Z,26.4966,-82.1479,1.916,6.39,1111122 
SCCF RECON,ioos:station:SCCF:12:1,2010-10-07T15:00:00Z,26.4966,-82.1479,2.114,6.23,1111122 
SCCF RECON,ioos:station:SCCF:12:1,2010-10-07T16:00:00Z,26.4966,-82.1479,2.269,6.64,1111122 
SCCF RECON,ioos:station:SCCF:12:1,2010-10-07T17:00:00Z,26.4966,-82.1479,2.38,6.8,1111122 
SCCF RECON,ioos:station:SCCF:12:1,2010-10-07T18:00:00Z,26.4966,-82.1479,2.438,6.87,1111122 
SCCF RECON,ioos:station:SCCF:12:1,2010-10-07T19:00:00Z,26.4966,-82.1479,2.403,7.01,1111122 
SCCF RECON,ioos:station:SCCF:12:1,2010-10-07T20:00:00Z,26.4966,-82.1479,2.283,6.98,1111122 
SCCF RECON,ioos:station:SCCF:12:1,2010-10-07T21:00:00Z,26.4966,-82.1479,2.155,6.97,1111122 
SCCF RECON,ioos:station:SCCF:12:1,2010-10-07T22:00:00Z,26.4966,-82.1479,2.064,6.71,1111122 
SCCF RECON,ioos:station:SCCF:12:1,2010-10-07T23:00:00Z,26.4966,-82.1479,2.012,6.92,1111122 
SCCF RECON,ioos:station:SCCF:12:1,2010-10-08T00:00:00Z,26.4966,-82.1479,2.015,7.02,1111122 
SCCF RECON,ioos:station:SCCF:12:1,2010-10-08T01:00:00Z,26.4966,-82.1479,2.092,6.92,1111122 
SCCF RECON,ioos:station:SCCF:12:1,2010-10-08T02:00:00Z,26.4966,-82.1479,2.25,6.93,1111122 
SCCF RECON,ioos:station:SCCF:12:1,2010-10-08T03:00:00Z,26.4966,-82.1479,2.416,6.52,1111122 
SCCF RECON,ioos:station:SCCF:12:1,2010-10-08T04:00:00Z,26.4966,-82.1479,2.522,6.44,1111122 
SCCF RECON,ioos:station:SCCF:12:1,2010-10-08T05:00:00Z,26.4966,-82.1479,2.59,6.66,1111122 
SCCF RECON,ioos:station:SCCF:12:1,2010-10-08T06:00:00Z,26.4966,-82.1479,2.59,6.69,1111122 
SCCF RECON,ioos:station:SCCF:12:1,2010-10-08T07:00:00Z,26.4966,-82.1479,2.495,6.66,1111122 
SCCF RECON,ioos:station:SCCF:12:1,2010-10-08T08:00:00Z,26.4966,-82.1479,2.331,6.48,1111122 
SCCF RECON,ioos:station:SCCF:12:1,2010-10-08T09:00:00Z,26.4966,-82.1479,2.164,6.29,1111122 
SCCF RECON,ioos:station:SCCF:12:1,2010-10-08T10:00:00Z,26.4966,-82.1479,2.02,6.52,1111122 
SCCF RECON,ioos:station:SCCF:12:1,2010-10-08T11:00:00Z,26.4966,-82.1479,1.899,6.4,1111122 
SCCF RECON,ioos:station:SCCF:12:1,2010-10-08T12:00:00Z,26.4966,-82.1479,1.8,6.35,1111122 
SCCF RECON,ioos:station:SCCF:12:1,2010-10-08T13:00:00Z,26.4966,-82.1479,1.76,6.22,1111122 
SCCF RECON,ioos:station:SCCF:12:1,2010-10-08T14:00:00Z,26.4966,-82.1479,1.866,6.46,1111122 
SCCF RECON,ioos:station:SCCF:12:1,2010-10-08T15:00:00Z,26.4966,-82.1479,2.087,6.44,1111122 
SCCF RECON,ioos:station:SCCF:12:1,2010-10-08T16:00:00Z,26.4966,-82.1479,2.27,6.63,1111122 
SCCF RECON,ioos:station:SCCF:12:1,2010-10-08T17:00:00Z,26.4966,-82.1479,2.4,6.72,1111122 
SCCF RECON,ioos:station:SCCF:12:1,2010-10-08T18:00:00Z,26.4966,-82.1479,2.48,6.75,1111122 
SCCF RECON,ioos:station:SCCF:12:1,2010-10-08T19:00:00Z,26.4966,-82.1479,2.498,6.89,1111122 
SCCF RECON,ioos:station:SCCF:12:1,2010-10-08T20:00:00Z,26.4966,-82.1479,2.433,6.88,1111122 
SCCF RECON,ioos:station:SCCF:12:1,2010-10-08T21:00:00Z,26.4966,-82.1479,2.318,6.84,1111122 
SCCF RECON,ioos:station:SCCF:12:1,2010-10-08T22:00:00Z,26.4966,-82.1479,2.218,6.44,1111122 
SCCF RECON,ioos:station:SCCF:12:1,2010-10-08T23:00:00Z,26.4966,-82.1479,2.159,6.62,1111122 
SCCF RECON,ioos:station:SCCF:12:1,2010-10-09T00:00:00Z,26.4966,-82.1479,2.128,6.69,1111122 
SCCF RECON,ioos:station:SCCF:12:1,2010-10-09T01:00:00Z,26.4966,-82.1479,2.153,6.81,1111122 
SCCF RECON,ioos:station:SCCF:12:1,2010-10-09T02:00:00Z,26.4966,-82.1479,2.243,6.83,1111122 
SCCF RECON,ioos:station:SCCF:12:1,2010-10-09T03:00:00Z,26.4966,-82.1479,2.398,6.63,1111122 
SCCF RECON,ioos:station:SCCF:12:1,2010-10-09T04:00:00Z,26.4966,-82.1479,2.553,6.17,1111122 
SCCF RECON,ioos:station:SCCF:12:1,2010-10-09T05:00:00Z,26.4966,-82.1479,2.64,5.98,1111122 
SCCF RECON,ioos:station:SCCF:12:1,2010-10-09T06:00:00Z,26.4966,-82.1479,2.659,6.31,1111122 
SCCF RECON,ioos:station:SCCF:12:1,2010-10-09T07:00:00Z,26.4966,-82.1479,2.599,6.49,1111122 
SCCF RECON,ioos:station:SCCF:12:1,2010-10-09T08:00:00Z,26.4966,-82.1479,2.47,6.56,1111122 
SCCF RECON,ioos:station:SCCF:12:1,2010-10-09T09:00:00Z,26.4966,-82.1479,2.304,6.36,1111122 
SCCF RECON,ioos:station:SCCF:12:1,2010-10-09T10:00:00Z,26.4966,-82.1479,2.147,6.13,1111122 
SCCF RECON,ioos:station:SCCF:12:1,2010-10-09T11:00:00Z,26.4966,-82.1479,2.01,6.16,1111122 
SCCF RECON,ioos:station:SCCF:12:1,2010-10-09T12:00:00Z,26.4966,-82.1479,1.89,6.13,1111122 
SCCF RECON,ioos:station:SCCF:12:1,2010-10-09T13:00:00Z,26.4966,-82.1479,1.802,6.18,1111122 
SCCF RECON,ioos:station:SCCF:12:1,2010-10-09T14:00:00Z,26.4966,-82.1479,1.79,6.14,1111122 
SCCF RECON,ioos:station:SCCF:12:1,2010-10-09T15:00:00Z,26.4966,-82.1479,1.944,6.25,1111122 
SCCF RECON,ioos:station:SCCF:12:1,2010-10-09T16:00:00Z,26.4966,-82.1479,2.154,6.17,1111122 
SCCF RECON,ioos:station:SCCF:12:1,2010-10-09T17:00:00Z,26.4966,-82.1479,2.31,6.6,1111122 
SCCF RECON,ioos:station:SCCF:12:1,2010-10-09T18:00:00Z,26.4966,-82.1479,2.411,6.48,1111122 
SCCF RECON,ioos:station:SCCF:12:1,2010-10-09T19:00:00Z,26.4966,-82.1479,2.479,6.5,1111122 
SCCF RECON,ioos:station:SCCF:12:1,2010-10-09T20:00:00Z,26.4966,-82.1479,2.492,6.63,1111122 
SCCF RECON,ioos:station:SCCF:12:1,2010-10-09T21:00:00Z,26.4966,-82.1479,2.432,6.78,1111122 
SCCF RECON,ioos:station:SCCF:12:1,2010-10-09T22:00:00Z,26.4966,-82.1479,2.333,6.63,1111122 
SCCF RECON,ioos:station:SCCF:12:1,2010-10-09T23:00:00Z,26.4966,-82.1479,2.264,6.51,1111122 
SCCF RECON,ioos:station:SCCF:12:1,2010-10-10T00:00:00Z,26.4966,-82.1479,2.23,6.34,1111122 
SCCF RECON,ioos:station:SCCF:12:1,2010-10-10T01:00:00Z,26.4966,-82.1479,2.227,6.63,1111122 
SCCF RECON,ioos:station:SCCF:12:1,2010-10-10T02:00:00Z,26.4966,-82.1479,2.29,6.46,1111122 
SCCF RECON,ioos:station:SCCF:12:1,2010-10-10T03:00:00Z,26.4966,-82.1479,2.416,6.45,1111122 
SCCF RECON,ioos:station:SCCF:12:1,2010-10-10T04:00:00Z,26.4966,-82.1479,2.56,6.49,1111122 
SCCF RECON,ioos:station:SCCF:12:1,2010-10-10T05:00:00Z,26.4966,-82.1479,2.66,5.98,1111122 
SCCF RECON,ioos:station:SCCF:12:1,2010-10-10T06:00:00Z,26.4966,-82.1479,2.71,5.51,1111122 
SCCF RECON,ioos:station:SCCF:12:1,2010-10-10T07:00:00Z,26.4966,-82.1479,2.692,6.13,1111122 
SCCF RECON,ioos:station:SCCF:12:1,2010-10-10T08:00:00Z,26.4966,-82.1479,2.61,6.34,1111122 
SCCF RECON,ioos:station:SCCF:12:1,2010-10-10T09:00:00Z,26.4966,-82.1479,2.48,6.25,1111122 
SCCF RECON,ioos:station:SCCF:12:1,2010-10-10T10:00:00Z,26.4966,-82.1479,2.32,6.33,1111122 
SCCF RECON,ioos:station:SCCF:12:1,2010-10-10T11:00:00Z,26.4966,-82.1479,2.17,6.2,1111122 
SCCF RECON,ioos:station:SCCF:12:1,2010-10-10T12:00:00Z,26.4966,-82.1479,2.033,6.27,1111122 
SCCF RECON,ioos:station:SCCF:12:1,2010-10-10T13:00:00Z,26.4966,-82.1479,1.909,6.11,1111122 
SCCF RECON,ioos:station:SCCF:12:1,2010-10-10T14:00:00Z,26.4966,-82.1479,1.81,5.87,1111122 
SCCF RECON,ioos:station:SCCF:12:1,2010-10-10T15:00:00Z,26.4966,-82.1479,1.792,5.94,1111122 
SCCF RECON,ioos:station:SCCF:12:1,2010-10-10T16:00:00Z,26.4966,-82.1479,1.937,6.09,1111122 
SCCF RECON,ioos:station:SCCF:12:1,2010-10-10T17:00:00Z,26.4966,-82.1479,2.123,5.75,1111122 
SCCF RECON,ioos:station:SCCF:12:1,2010-10-10T18:00:00Z,26.4966,-82.1479,2.249,6.35,1111122 
SCCF RECON,ioos:station:SCCF:12:1,2010-10-10T19:00:00Z,26.4966,-82.1479,2.321,6.26,1111122 
SCCF RECON,ioos:station:SCCF:12:1,2010-10-10T20:00:00Z,26.4966,-82.1479,2.349,6.41,1111122 
SCCF RECON,ioos:station:SCCF:12:1,2010-10-10T21:00:00Z,26.4966,-82.1479,2.329,6.57,1111122 
SCCF RECON,ioos:station:SCCF:12:1,2010-10-10T22:00:00Z,26.4966,-82.1479,2.261,6.6,1111122 
SCCF RECON,ioos:station:SCCF:12:1,2010-10-10T23:00:00Z,26.4966,-82.1479,2.2,6.4,1111122 
SCCF RECON,ioos:station:SCCF:12:1,2010-10-11T00:00:00Z,26.4966,-82.1479,2.177,5.79,1111122 
SCCF RECON,ioos:station:SCCF:12:1,2010-10-11T01:00:00Z,26.4966,-82.1479,2.18,6.18,1111122 
SCCF RECON,ioos:station:SCCF:12:1,2010-10-11T02:00:00Z,26.4966,-82.1479,2.2,6.33,1111122 
SCCF RECON,ioos:station:SCCF:12:1,2010-10-11T03:00:00Z,26.4966,-82.1479,2.25,6.31,1111122 
SCCF RECON,ioos:station:SCCF:12:1,2010-10-11T04:00:00Z,26.4966,-82.1479,2.36,6.26,1111122 
SCCF RECON,ioos:station:SCCF:12:1,2010-10-11T05:00:00Z,26.4966,-82.1479,2.49,6.1,1111122 
SCCF RECON,ioos:station:SCCF:12:1,2010-10-11T06:00:00Z,26.4966,-82.1479,2.57,5.61,1111122 
SCCF RECON,ioos:station:SCCF:12:1,2010-10-11T07:00:00Z,26.4966,-82.1479,2.6,4.8,1111122 
SCCF RECON,ioos:station:SCCF:12:1,2010-10-11T08:00:00Z,26.4966,-82.1479,2.573,5.94,1111122 
SCCF RECON,ioos:station:SCCF:12:1,2010-10-11T09:00:00Z,26.4966,-82.1479,2.49,6.01,1111122 
SCCF RECON,ioos:station:SCCF:12:1,2010-10-11T10:00:00Z,26.4966,-82.1479,2.37,6.05,1111122 
SCCF RECON,ioos:station:SCCF:12:1,2010-10-11T11:00:00Z,26.4966,-82.1479,2.22,5.98,1111122 
SCCF RECON,ioos:station:SCCF:12:1,2010-10-11T12:00:00Z,26.4966,-82.1479,2.087,5.91,1111122 
SCCF RECON,ioos:station:SCCF:12:1,2010-10-11T13:00:00Z,26.4966,-82.1479,1.96,5.82,1111122 
SCCF RECON,ioos:station:SCCF:12:1,2010-10-11T14:00:00Z,26.4966,-82.1479,1.854,5.65,1111122 
SCCF RECON,ioos:station:SCCF:12:1,2010-10-11T15:00:00Z,26.4966,-82.1479,1.782,5.58,1111122 
SCCF RECON,ioos:station:SCCF:12:1,2010-10-11T16:00:00Z,26.4966,-82.1479,1.819,5.81,1111122 
SCCF RECON,ioos:station:SCCF:12:1,2010-10-11T17:00:00Z,26.4966,-82.1479,1.98,5.89,1111122 
SCCF RECON,ioos:station:SCCF:12:1,2010-10-11T18:00:00Z,26.4966,-82.1479,2.122,6.05,1111122 
SCCF RECON,ioos:station:SCCF:12:1,2010-10-11T19:00:00Z,26.4966,-82.1479,2.21,6.4,1111122 
SCCF RECON,ioos:station:SCCF:12:1,2010-10-11T20:00:00Z,26.4966,-82.1479,2.268,6.35,1111122 